千帆星座-12 (QIANFAN-12)

Basic Information
目录编号:
60390
目录名称:
QIANFAN-12
国际标识:
2024-140M
轨道中心:
EARTH
卫星名称:
千帆星座-12 (QIANFAN-12)
卫星全名:
千帆星座-12 (QIANFAN-12)
卫星状态:
在轨 (已飞行585 天)
发射日期:
2024-08-06 UTC
国别 :
中国 (CN)
星等 :
--
Orbit Information
数据来源 国际轨道数据 AOE轨道数据
星历时间 2026-03-14T06:02:52+0800
12小时前
查看轨道信息
2026-03-14T09:00:00+0800
9小时前
查看轨道信息
半长轴 7446.712km 7446.706km
偏心率 0.0011762 0.0011634
轨道倾角 88.969° 88.968°
近地点辐角 308.005° 307.892°
升交点赤经 289.865° 289.851°
平近点角 52.004° 290.026°
近地点 1059.816km 1059.905km
远地点 1077.334km 1077.233km
周期 106.588分钟 106.587分钟
每日圈数 13.510018 13.510035
Detailed Information
运营商:
上海垣信卫星科技有限公司
运营商所在国:
中国
使用方式:
暂无
Satellite Introduction
千帆星座,也被称为“G60星链”计划,是中国版“星链”的重要组成部分,旨在打造一个由1.4万多颗低轨宽频多媒体卫星构成的庞大星座。千帆星座计划由上海垣信卫星科技有限公司负责实施,于2023年启动建设。该项目是我国第二个低轨卫星大星座,旨在通过构建庞大的卫星网络,为全球用户提供高质量的通信和宽带互联网服务。
2D Orbit Map
3D Orbit Map
Orbit Altitude Analysis Chart
Orbit Inclination Analysis Chart
Orbit Comprehensive Analysis Chart
View Comprehensive Chart